Location: �mondeville
(49.4591°N, 1.3431°W)
Time: 11:38:10
(UTC+00:00)

Cosmos 2369 Rocket - Pass Details

Date: 22 October 2019
Orbit: 830 x 851 km, 71.0° (Epoch: 17 November)

Event Time Altitude Azimuth Distance (km) Brightness Sun altitude
Exits shadow 04:20:43 - 334° (NNW) 3,417 5.2 -22.7°
Rises 04:20:48 0° 334° (NNW) 3,390 5.2 -22.7°
Reaches altitude 10° 04:23:28 10° 343° (NNW) 2,450 4.5 -22.3°
Maximum altitude 04:28:36 35° 49° (NE) 1,312 3.7 -21.5°
Drops below altitude 10° 04:33:41 10° 115° (ESE) 2,436 5.4 -20.7°
Sets 04:36:19 0° 124° (SE) 3,367 6.1 -20.2°
